Location: Unspecified
(50.7693°N, 0.0000°E)
Time: 21:50:40
(UTC+00:00)

S-56A Canister/Altair - All Passes

Search period start: 17 June 2019 00:00
Search period end: 27 June 2019 00:00
Orbit: 633 x 2499 km, 38.9° (Epoch: 16 June)

Date Brightness Start Highest point End Pass type
(mag) Time Alt. Az. Time Alt. Az. Time Alt. Az.
17 Jun - 16:23:24 10° S 16:26:16 13° SSE 16:28:49 10° SE daylight
17 Jun - 18:24:38 10° SW 18:29:19 21° S 18:33:08 10° SE daylight
17 Jun - 20:28:24 10° WSW 20:32:05 19° SSW 20:35:21 10° SE daylight
18 Jun - 15:50:44 10° S 15:53:39 12° SSE 15:56:14 10° SE daylight
18 Jun - 17:51:41 10° SW 17:56:47 22° S 18:00:51 10° ESE daylight
18 Jun - 19:55:30 10° WSW 19:59:38 21° S 20:03:09 10° SE daylight
19 Jun - 15:18:06 10° S 15:20:59 12° SSE 15:23:34 10° SE daylight
19 Jun - 17:18:40 10° SW 17:24:13 23° S 17:28:33 10° ESE daylight
19 Jun - 19:22:30 10° WSW 19:27:10 23° S 19:30:58 10° SE daylight
19 Jun - 21:28:10 10° SW 21:29:36 11° SSW 21:31:00 10° S visible
20 Jun - 14:45:32 10° S 14:48:18 12° SSE 14:50:47 10° SE daylight
20 Jun - 16:45:35 10° SW 16:51:38 23° SSE 16:56:14 10° ESE daylight
20 Jun - 18:49:27 10° WSW 18:54:41 25° S 18:58:48 10° SE daylight
20 Jun - 20:54:44 10° SW 20:57:11 13° SSW 20:59:26 10° S daylight
21 Jun - 14:13:07 10° SSE 14:15:34 11° SSE 14:17:49 10° SE daylight
21 Jun - 16:12:29 10° SSW 16:18:59 23° SSE 16:23:54 10° ESE daylight
21 Jun - 18:16:20 10° WSW 18:22:09 27° S 18:26:35 10° SE daylight
21 Jun - 20:21:28 10° WSW 20:24:45 16° SSW 20:27:38 10° SSE daylight
22 Jun - 13:40:59 10° SSE 13:42:49 11° SSE 13:44:31 10° SE daylight
22 Jun - 15:39:20 10° SSW 15:46:17 23° SSE 15:51:33 10° ESE daylight
22 Jun - 17:43:09 10° WSW 17:49:36 29° S 17:54:23 10° SE daylight
22 Jun - 19:48:15 10° WSW 19:52:19 19° SSW 19:55:44 10° SSE daylight
23 Jun - 15:06:11 10° SSW 15:13:34 23° SSE 15:19:08 10° ESE daylight
23 Jun - 17:09:54 10° WSW 17:16:59 30° S 17:22:09 10° ESE daylight
23 Jun - 19:15:01 10° WSW 19:19:51 21° SSW 19:23:44 10° SSE daylight
24 Jun - 14:33:01 10° SSW 14:40:46 23° SSE 14:46:41 10° ESE daylight
24 Jun - 16:36:35 10° SW 16:44:21 32° S 16:49:54 10° ESE daylight
24 Jun - 18:41:44 10° WSW 18:47:22 24° SSW 18:51:42 10° SE daylight
25 Jun - 13:59:53 10° SSW 14:07:57 23° SSE 14:14:09 10° ESE daylight
25 Jun - 16:03:14 10° SW 16:11:39 33° S 16:17:37 10° ESE daylight
25 Jun - 18:08:24 10° WSW 18:14:50 28° SSW 18:19:37 10° SE daylight
25 Jun - 20:15:58 10° SW 20:17:04 11° SW 20:18:08 10° SSW daylight
26 Jun - 13:26:46 10° SSW 13:35:04 22° SSE 13:41:34 10° ESE daylight
26 Jun - 15:29:51 10° SW 15:38:53 34° S 15:45:17 10° ESE daylight
26 Jun - 17:35:02 10° WSW 17:42:16 30° SSW 17:47:30 10° SE daylight
26 Jun - 19:41:39 10° WSW 19:44:39 13° SW 19:47:17 10° S daylight
